Weather observations for the past three days for
Mc Campbell
Imperial (Metric)
Date Time (cdt) Wind (mph) Vis. (mi.) Weather Sky Cond. Temperature (ºF) Relative Humidity Wind Chill (°F) Heat Index (°F) Pressure Precipitation (in)
Air Dwpt 6 hour altimeter (in) sea level (mb) 1 hr 3 hr 6 hr
Max. Min.
25 04:15 NE 3 10.00 Mostly Cloudy SCT008 SCT012 BKN030 79.7 76.3 89% 85 30.01 0.0
25 03:55 NE 3 10.00 Overcast OVC032 79.9 76.6 90% 85 30.01 0.0
25 03:35 Calm 10.00 Mostly Cloudy BKN036 79.7 76.1 89% 85 30.01 0.0
25 03:15 NE 3 10.00 Partly Cloudy SCT038 SCT050 79.9 76.3 89% 85 30.01 0.0
25 02:55 N 6 10.00 Partly Cloudy SCT011 SCT022 SCT036 80.6 76.6 88% 87 30.01 0.0
25 02:35 Calm 10.00 Partly Cloudy SCT010 SCT020 SCT036 81.1 77 87% 88 30.03 0.0
25 02:15 Calm 10.00 Partly Cloudy SCT018 81.1 76.1 85% 88 30.03 0.0
25 01:55 Calm 10.00 Fair CLR 81.1 76.1 85% 88 30.04 0.0
25 01:35 S 5 10.00 Partly Cloudy SCT048 SCT065 81.5 76.3 84% 89 30.04 0.0
25 01:15 S 7 10.00 Partly Cloudy SCT020 SCT048 80.8 75.4 84% 87 30.04 0.0
25 00:55 S 6 10.00 Partly Cloudy SCT023 80.2 74.5 82.4 79.7 83% 85 30.05 0.0
25 00:35 S 5 10.00 Partly Cloudy SCT023 79.7 73.6 82% 84 30.05 0.0
25 00:15 S 5 10.00 Partly Cloudy SCT018 80.2 74.3 82% 85 30.05 0.0
24 23:55 S 6 10.00 Partly Cloudy SCT014 SCT020 80.6 75 83% 86 30.05 0.0
24 23:35 Calm 10.00 Fair CLR 81.3 75.7 83% 88 30.05 0.0
24 23:15 Calm 10.00 Partly Cloudy SCT017 SCT022 81.9 75.7 82% 89 30.05 0.0
24 22:55 Calm 10.00 Mostly Cloudy BKN019 BKN026 81.9 76.1 83% 89 30.05 0.0
24 22:35 S 5 10.00 Mostly Cloudy BKN019 BKN027 81.5 75.6 82% 88 30.04 0.0
24 22:15 S 7 10.00 Partly Cloudy SCT019 81.5 75.2 81% 88 30.03 0.0
24 21:55 S 6 10.00 Partly Cloudy SCT026 81.5 75.2 81% 88 30.03 0.0
24 21:35 S 8 10.00 Mostly Cloudy SCT018 BKN026 81.5 76.1 84% 88 30.02 0.0
24 21:15 S 10 10.00 Partly Cloudy SCT021 81.3 75.9 84% 88 30.01 0.0
24 20:55 SE 7 10.00 Fair CLR 81.3 75.7 83% 88 30.01 0.0
24 20:35 SE 6 10.00 Partly Cloudy SCT040 81.7 76.3 84% 89 30.02 0.0
24 20:15 SE 7 10.00 Mostly Cloudy SCT017 SCT023 BKN036 82 76.1 82% 89 30.03 0.0
24 19:55 SE 9 10.00 Mostly Cloudy SCT017 BKN025 BKN034 82.4 76.1 81% 90 30.03 0.0
24 19:35 E 6 10.00 Partly Cloudy SCT015 SCT022 82 76.3 83% 90 30.04 0.0
24 19:15 SE 6 10.00 Partly Cloudy SCT015 81.7 76.5 84% 89 30.03 0.0
24 18:55 E 7 10.00 Partly Cloudy SCT008 81.1 76.3 90.7 81.1 85% 88 30.03 0.0
24 18:35 SE 10 10.00 Partly Cloudy SCT008 SCT012 SCT018 81.5 76.8 86% 89 30.02 0.0
24 18:15 SE 14 G 18 7.00 Partly Cloudy SCT010 SCT015 SCT035 83.3 76.1 79% 92 30.03 0.0
24 17:55 SE 14 7.00 Partly Cloudy SCT005 SCT012 SCT019 84.6 76.1 76% 94 30.03 0.0
24 17:35 SE 14 10.00 Partly Cloudy SCT019 SCT026 86.9 75.6 69% 97 30.02 0.0
24 17:15 SE 12 G 16 10.00 Mostly Cloudy BKN019 BKN029 86.9 75.4 69% 97 30.02 0.0
24 16:55 SE 12 G 16 10.00 Mostly Cloudy SCT019 BKN027 87.8 75.9 68% 99 30.02 0.0
24 16:35 SE 10 10.00 Partly Cloudy SCT019 SCT024 87.3 75.2 67% 97 30.03 0.0
24 16:15 SE 12 10.00 Partly Cloudy SCT023 88.3 75.4 66% 99 30.02 0.0
24 15:55 SE 12 10.00 Fair CLR 89.2 74.5 62% 99 30.02 0.0
24 15:35 SE 9 10.00 Fair CLR 87.6 75.2 67% 97 30.03 0.0
24 15:15 S 9 10.00 Partly Cloudy SCT009 SCT015 SCT020 87.1 77.7 74% 100 30.04 0.0
24 14:55 S 13 10.00 Mostly Cloudy BKN019 BKN026 87.8 75.4 67% 98 30.05 0.0
24 14:35 SE 13 10.00 Partly Cloudy SCT019 SCT029 87.6 75.9 68% 98 30.05 0.0
24 14:15 E 12 G 17 10.00 Mostly Cloudy SCT019 BKN029 87.1 75.2 68% 97 30.06 0.0
24 13:55 SE 10 10.00 Partly Cloudy SCT019 SCT024 88.3 75 65% 98 30.06 0.0
24 13:35 SE 10 10.00 Partly Cloudy SCT019 SCT025 90.7 75.6 61% 102 30.06 0.0
24 13:15 SE 10 10.00 Partly Cloudy SCT019 SCT026 88.9 75.7 65% 100 30.07 0.0
24 12:55 SE 12 10.00 Partly Cloudy SCT020 SCT025 89.8 75.7 90.5 76.1 63% 101 30.07 0.0 0.01
24 12:35 SE 8 10.00 Partly Cloudy SCT020 89.6 74.3 61% 99 30.07 0.0
24 12:15 SE 7 10.00 Partly Cloudy SCT020 89.4 75.7 64% 101 30.07 0.0
24 11:55 SE 3 10.00 Partly Cloudy SCT020 89.2 77.2 68% 102 30.08 0.0
24 11:35 SE 5 10.00 Partly Cloudy SCT020 86.9 75.7 70% 97 30.08 0.0
24 11:15 Calm 10.00 Partly Cloudy SCT020 SCT046 88.2 80.4 78% 105 30.08 0.0
24 10:55 Calm 10.00 Fair CLR 86.9 80.8 82% 104 30.08 0.0
24 10:35 Calm 10.00 Fair CLR 82.8 76.1 80% 91 30.07 0.0
24 10:15 SE 5 10.00 Partly Cloudy SCT008 SCT012 80.4 76.5 88% 86 30.07 0.0
24 09:55 SE 5 7.00 Partly Cloudy SCT008 SCT012 SCT048 78.8 75 88% 82 30.08 0.0 0.01 0.01
24 09:35 SE 6 10.00 Partly Cloudy SCT046 78.1 74.8 90% 81 30.08 0.0 0.01
24 09:15 SE 5 10.00 Fair CLR 77.7 74.5 90% 80 30.08 0.0 0.01
24 08:55 Calm 10.00 Partly Cloudy SCT010 SCT015 76.8 73.4 89% 78 30.07 0.0
24 08:35 S 7 7.00 Overcast BKN010 OVC015 76.3 72.9 89% 77 30.07 0.0
24 08:15 S 13 4.00 Overcast OVC008 76.1 72.5 89% 76 30.07 0.0
24 07:55 S 10 G 18 7.00 Thunderstorm in Vicinity BKN008 BKN011 BKN036 76.6 73.2 89% 77 30.07 0.0
24 07:35 SE 7 10.00 Partly Cloudy SCT036 SCT050 SCT060 78.4 75.6 91% 82 30.05 0.0
24 07:15 SE 3 10.00 Thunderstorm in Vicinity CLR 77.4 74.3 90% 79 30.05 0.0
24 06:55 Calm 10.00 Fair CLR 77.9 74.7 81.5 77 90% 80 30.04 0.0
24 06:35 Calm 10.00 Fair CLR 77.5 73.8 88% 79 30.03 0.0
24 06:15 S 6 10.00 Thunderstorm in Vicinity SCT023 SCT048 77.4 73.2 87% 79 30.02 0.0
24 05:55 S 5 10.00 Mostly Cloudy SCT010 SCT017 BKN023 77.4 73.2 87% 79 30.03 0.0
24 05:35 S 12 10.00 Mostly Cloudy SCT010 SCT017 BKN023 77.9 74.3 89% 80 30.03 0.0
24 05:15 Calm 10.00 Fair CLR 78.4 75 89% 82 30.02 0.0
24 04:55 W 3 10.00 Mostly Cloudy SCT006 BKN010 BKN016 78.4 74.7 88% 81 30.02 0.0
24 04:35 SW 14 G 17 7.00 Thunderstorm SCT004 SCT012 BKN024 77 72.5 86% 78 30.01 0.0
24 04:15 S 10 G 20 10.00 Partly Cloudy SCT020 SCT027 SCT037 79.3 75.2 87% 84 30.02 0.0
24 03:55 Calm 10.00 Partly Cloudy SCT029 SCT039 79.7 76.1 89% 85 30.01 0.0
24 03:35 Calm 10.00 Partly Cloudy SCT029 SCT039 79.7 76.1 89% 85 30.02 0.0
24 03:15 NW 3 10.00 Fair CLR 80.2 76.1 87% 86 30.02 0.0
24 02:55 Calm 10.00 Fair CLR 81 76.5 86% 88 30.02 0.0
24 02:35 Calm 10.00 Fair CLR 81.5 77 86% 89 30.02 0.0
24 02:15 SE 3 10.00 Fair CLR 81.5 77 86% 89 30.02 0.0
24 01:55 Calm 10.00 Fair CLR 80.8 75.7 85% 87 30.03 0.0
24 01:35 S 3 10.00 Fair CLR 80.2 75.2 85% 85 30.03 0.0
24 01:15 S 5 10.00 Fair CLR 79.9 74.8 85% 85 30.03 0.0
24 00:55 S 3 10.00 Fair CLR 79.9 75.2 85.1 79.7 86% 85 30.04 0.0
24 00:15 Calm 10.00 Partly Cloudy SCT021 SCT031 79.9 75.2 86% 85 30.03 0.0
23 23:55 S 3 10.00 Partly Cloudy SCT021 SCT031 79.7 75 86% 84 30.03 0.0
23 23:35 S 3 10.00 Fair CLR 79.7 75 86% 84 30.03 0.0
23 23:15 SE 6 10.00 Fair CLR 80.6 75.4 84% 86 30.02 0.0
23 22:55 Calm 10.00 Fair CLR 79.7 74.3 84% 84 30.02 0.0
23 22:35 Calm 10.00 Fair CLR 80.2 74.7 83% 85 30.01 0.0
23 22:15 Calm 10.00 Fair CLR 79.9 73.2 80% 84 30.01 0.0
23 21:55 S 3 10.00 Fair CLR 80.2 73.4 80% 85 30 0.0
23 21:35 SE 6 10.00 Fair CLR 80.8 74.1 80% 86 30 0.0
23 21:15 Calm 10.00 Fair CLR 81.1 74.5 80% 87 30 0.0
23 20:55 SE 5 10.00 Fair CLR 81.9 75.4 81% 89 30 0.0
23 20:35 SE 6 10.00 Fair CLR 82 73.9 77% 88 29.98 0.0
23 20:15 SE 7 10.00 Fair CLR 83.1 74.5 75% 90 29.97 0.0
23 19:55 SE 8 10.00 Fair CLR 84.2 75 74% 92 29.96 0.0
23 19:35 SE 8 10.00 Fair CLR 84.4 75.4 74% 93 29.97 0.0
23 19:15 S 8 10.00 Fair CLR 85.1 76.8 76% 95 29.96 0.0
23 18:55 S 7 10.00 Partly Cloudy SCT018 85.1 78.1 96.3 82.6 80% 97 29.97 0.0
23 18:35 S 8 10.00 Partly Cloudy SCT018 84 77.2 80% 94 29.96 0.0
23 18:15 S 5 10.00 Fair CLR 83.5 77.2 81% 93 29.96 0.0
23 17:55 Calm 10.00 Fair CLR 83.1 76.3 80% 92 29.97 0.0
23 17:35 Calm 10.00 Fair CLR 82.8 75.6 79% 90 29.97 0.0
23 17:15 S 6 10.00 Thunderstorm in Vicinity CLR 83.5 75.2 76% 91 29.97 0.0
23 16:55 S 12 10.00 Thunderstorm in Vicinity SCT018 85.8 76.5 74% 96 29.96 0.0
23 16:35 S 16 10.00 Thunderstorm BKN018 BKN025 BKN033 86 76.5 73% 97 29.95 0.0
23 16:15 S 15 10.00 Mostly Cloudy SCT018 BKN023 BKN028 86.7 76.8 72% 98 29.96 0.0
23 15:55 S 15 G 21 10.00 Thunderstorm SCT018 BKN024 87.8 76.8 70% 100 29.96 0.0
23 15:35 SE 17 G 21 10.00 Thunderstorm SCT018 SCT022 90.3 77.2 65% 104 29.96 0.0
23 15:15 S 14 10.00 Thunderstorm in Vicinity SCT018 SCT029 91.2 77.7 65% 106 29.97 0.0
23 14:55 S 13 10.00 Thunderstorm in Vicinity SCT026 93.6 76.1 57% 107 29.96 0.0
23 14:35 S 8 10.00 Fair CLR 96.1 77 54% 111 29.96 0.0
23 14:15 W 9 10.00 Fair CLR 95.7 77.2 55% 111 29.97 0.0
23 13:55 SW 12 10.00 Fair CLR 95.5 77.2 56% 111 29.96 0.0
23 13:35 SW 12 10.00 Partly Cloudy SCT020 SCT026 93.6 80.1 65% 113 29.98 0.0
23 13:15 SE 9 10.00 Partly Cloudy SCT020 SCT026 90 78.1 68% 105 29.98 0.0
23 12:55 S 5 10.00 Partly Cloudy SCT024 90.5 77.5 90.5 79 66% 105 29.98 0.0 0.01
23 12:35 SW 3 10.00 Fair CLR 90 78.1 68% 105 29.99 0.0
23 12:15 SW 3 10.00 Fair CLR 88.9 77.7 70% 102 30 0.0
23 11:55 SW 3 10.00 Fair CLR 88.5 77.7 70% 102 30 0.0
23 11:35 Calm 10.00 Fair CLR 87.6 77.5 72% 100 30 0.0
23 11:15 SW 7 10.00 Fair CLR 87.1 77.2 72% 99 30 0.0
23 10:55 SW 6 10.00 Fair CLR 87.4 77.7 73% 100 30 0.0
23 10:35 SW 6 10.00 Partly Cloudy SCT022 88.2 78.4 73% 102 30 0.0
23 10:15 SW 7 10.00 Partly Cloudy SCT022 89.2 81.7 78% 109 30 0.0
23 09:55 SW 5 10.00 Fair CLR 87.1 79.7 79% 102 29.99 0.0 0.01 0.01
23 09:35 SW 3 10.00 Fair CLR 87.4 82.2 85% 107 30 0.0 0.01
23 09:15 Calm 10.00 Fair CLR 87.1 82.9 88% 108 29.99 0.0 0.01
23 08:55 Calm 10.00 Fair CLR 84.6 80.6 88% 99 29.98 0.0
23 08:35 S 3 10.00 Fair CLR 82.4 78.8 89% 92 29.99 0.0
23 08:15 Calm 10.00 Fair CLR 81.7 78.1 89% 90 29.98 0.0
23 07:55 Calm 10.00 Fair CLR 80.6 77.2 89% 87 29.97 0.0
23 07:35 Calm 10.00 Fair CLR 80.1 77 90% 86 29.98 0.0
23 07:15 Calm 10.00 Fair CLR 79.7 76.1 89% 85 29.97 0.0
23 06:55 Calm 10.00 Thunderstorm in Vicinity CLR 79 74.8 83.3 78.4 87% 83 29.95 0.0
23 06:35 S 5 10.00 Fair CLR 78.8 73.6 84% 82 29.94 0.0
23 06:15 S 5 10.00 Partly Cloudy SCT005 SCT009 SCT022 78.6 73.4 84% 82 29.93 0.0
23 05:55 S 5 10.00 Partly Cloudy SCT022 SCT029 SCT043 78.8 73.9 85% 82 29.94 0.0
23 05:35 SW 5 10.00 Partly Cloudy SCT029 SCT035 79 74.1 85% 83 29.94 0.0
23 05:15 SW 3 10.00 Fair CLR 79 73.9 85% 83 29.94 0.0
23 04:55 S 6 10.00 Partly Cloudy SCT020 79.7 74.7 85% 84 29.94 0.0
23 04:35 SW 7 10.00 Partly Cloudy SCT020 79.9 75.2 86% 85 29.93 0.0
23 04:15 Calm 10.00 Partly Cloudy SCT020 SCT027 80.1 75.4 86% 85 29.94 0.0
23 03:55 SE 5 10.00 Partly Cloudy SCT007 SCT021 SCT029 80.6 76.1 86% 87 29.94 0.0
23 03:35 SE 12 G 17 10.00 Partly Cloudy SCT021 SCT028 SCT033 80.6 72.9 77% 85 29.94 0.0
23 03:15 SE 7 10.00 Fair CLR 82.9 77.2 83% 92 29.94 0.0
23 02:55 S 5 10.00 Fair CLR 83.3 77.4 82% 93 29.94 0.0
23 02:35 SE 7 10.00 Fair CLR 83.1 77.2 82% 92 29.95 0.0
23 02:15 SE 8 10.00 Fair CLR 82.8 76.8 82% 91 29.94 0.0
23 01:55 SE 7 10.00 Fair CLR 82.6 76.5 82% 91 29.95 0.0
23 01:35 SE 7 10.00 Fair CLR 82.8 76.3 81% 91 29.95 0.0
23 01:15 SE 7 10.00 Fair CLR 83.3 76.6 80% 92 29.95 0.0
23 00:55 SE 7 10.00 Fair CLR 83.3 76.6 86.9 82.6 80% 92 29.96 0.0
23 00:35 SE 8 10.00 Partly Cloudy SCT018 83.3 76.6 80% 92 29.96 0.0
23 00:15 SE 8 10.00 Partly Cloudy SCT020 83.3 76.8 81% 92 29.96 0.0
22 23:55 SE 8 10.00 Fair CLR 83.3 76.3 79% 92 29.96 0.0
22 23:35 SE 9 10.00 Fair CLR 83.3 76.1 79% 92 29.95 0.0
22 23:15 SE 9 10.00 Fair CLR 83.3 76.1 79% 92 29.94 0.0
22 22:55 SE 10 10.00 Fair CLR 82.9 76.1 80% 91 29.94 0.0
22 22:35 SE 9 10.00 Fair CLR 82.9 76.1 80% 91 29.93 0.0
22 22:15 SE 8 10.00 Fair CLR 82.8 75.7 79% 91 29.93 0.0
22 21:55 SE 8 10.00 Fair CLR 82.8 75.2 78% 90 29.93 0.0
22 21:35 SE 8 10.00 Fair CLR 82.8 75.2 78% 90 29.93 0.0
22 21:15 SE 7 10.00 Fair CLR 82.8 74.7 77% 90 29.93 0.0
22 20:55 SE 6 10.00 Fair CLR 82.9 73.9 74% 89 29.92 0.0
22 20:35 S 8 10.00 Fair CLR 83.5 73.4 72% 90 29.91 0.0
22 20:15 S 8 10.00 Fair CLR 84.4 72.1 67% 90 29.91 0.0
22 19:55 S 7 10.00 Fair CLR 85.3 71.4 63% 91 29.91 0.0
22 19:35 S 10 10.00 Fair CLR 86.2 73.6 66% 94 29.9 0.0
22 19:15 S 8 10.00 Fair CLR 86.9 73.6 65% 95 29.91 0.0
22 18:55 S 9 10.00 Fair CLR 86.9 72.5 94.5 86.9 62% 94 29.91 0.0
22 18:35 S 10 10.00 Fair CLR 87.4 73 62% 95 29.91 0.0
22 18:15 S 12 10.00 Fair CLR 88 72.7 61% 95 29.92 0.0
22 17:55 S 9 10.00 Fair CLR 89.1 73 59% 97 29.92 0.0
22 17:35 SE 14 10.00 Fair CLR 89.1 74.8 63% 99 29.92 0.0
22 17:15 S 13 G 17 10.00 Fair CLR 88.7 73.6 61% 97 29.93 0.0
22 16:55 S 10 10.00 Partly Cloudy SCT022 SCT029 87.6 74.5 65% 97 29.93 0.0
22 16:35 S 17 G 21 10.00 Partly Cloudy SCT026 89.6 76.3 65% 102 29.93 0.0
22 16:15 S 10 10.00 Partly Cloudy SCT028 90.5 75.7 62% 102 29.94 0.0
22 15:55 S 12 G 21 10.00 Fair CLR 92.1 75.4 58% 104 29.95 0.0
22 15:35 S 14 G 18 10.00 Fair CLR 93.6 77 59% 108 29.96 0.0
22 15:15 S 13 G 22 10.00 Fair CLR 92.8 75.7 58% 105 29.96 0.0
22 14:55 SE 15 G 20 10.00 Fair CLR 94.1 74.3 53% 105 29.96 0.0
22 14:35 S 15 G 20 10.00 Thunderstorm in Vicinity CLR 93.9 76.3 57% 107 29.97 0.0
22 14:15 S 13 10.00 Thunderstorm in Vicinity SCT027 94.5 75.9 55% 108 29.97 0.0
22 13:55 S 13 10.00 Fair CLR 94.3 75.6 55% 107 29.98 0.0
22 13:35 S 12 G 20 10.00 Thunderstorm in Vicinity CLR 93.7 73.2 51% 103 29.98 0.0
22 13:15 S 10 10.00 Thunderstorm CLR 93.7 73.8 52% 104 29.99 0.0
22 12:55 S 12 G 20 10.00 Thunderstorm in Vicinity CLR 93 75.6 93 79.7 57% 105 29.99 0.0 0.01
22 12:35 S 13 10.00 Thunderstorm SCT024 SCT031 91.6 77 62% 105 29.98 0.0
22 12:15 S 16 G 22 10.00 Thunderstorm in Vicinity SCT024 SCT031 90.3 75.9 63% 102 29.99 0.0
22 11:55 SW 12 G 18 10.00 Partly Cloudy SCT032 SCT065 92.3 75.7 59% 104 29.99 0.0
22 11:35 S 16 1.00 Thunderstorm in Vicinity VV007 91.4 78.1 65% 107 29.99 0.0
22 11:15 S 13 3.00 Partly Cloudy SCT024 90.3 81.7 76% 111 29.98 0.0
22 10:55 S 10 7.00 Mostly Cloudy BKN022 BKN026 88.5 82.6 83% 110 29.99 0.0
22 10:35 SW 3 10.00 Partly Cloudy SCT018 85.6 80.4 84% 101 29.99 0.0
22 10:15 Calm 10.00 Partly Cloudy SCT008 SCT012 81.9 76.1 83% 89 29.99 0.0
22 09:55 SW 9 G 17 3.00 Overcast BKN006 OVC012 81.3 74.3 79% 87 30 0.0 0.01 0.01
22 09:35 E 6 10.00 Partly Cloudy SCT006 SCT010 SCT029 82.9 77.2 83% 92 29.99 0.0
22 09:15 E 3 10.00 Fair CLR 83.8 78.3 83% 95 29.98 0.0
22 08:55 Calm 10.00 Fair CLR 84 78.1 82% 95 29.98 0.0
22 08:35 Calm 10.00 Fair CLR 84.4 78.3 82% 96 29.97 0.0
22 08:15 Calm 10.00 Fair CLR 84.9 79.3 83% 98 29.97 0.0
22 07:55 Calm 10.00 Thunderstorm CLR 83.1 78.1 85% 93 29.97 0.0
22 07:35 Calm 10.00 Thunderstorm in Vicinity CLR 82.2 77.2 85% 91 29.96 0.0
22 07:15 Calm 10.00 Partly Cloudy SCT019 SCT023 SCT030 82.2 77.2 85% 91 29.95 0.0
22 06:55 Calm 10.00 Partly Cloudy SCT016 SCT022 SCT028 82 76.6 83.5 81.1 84% 90 29.95 0.0
22 06:35 Calm 10.00 Mostly Cloudy SCT014 BKN020 BKN028 81.9 76.1 83% 89 29.94 0.0
22 06:15 W 3 10.00 Mostly Cloudy SCT016 BKN021 BKN026 81.9 75.7 82% 89 29.94 0.0
22 05:55 S 3 10.00 Mostly Cloudy SCT016 BKN022 BKN028 81.5 74.7 80% 88 29.93 0.0
22 05:35 SW 3 10.00 Partly Cloudy SCT018 SCT026 SCT032 81.5 74.5 79% 87 29.92 0.0
22 05:15 Calm 10.00 Partly Cloudy SCT018 SCT027 81.5 74.3 79% 87 29.92 0.0
22 04:55 Calm 10.00 Partly Cloudy SCT020 SCT025 81.5 74.3 79% 87 29.93 0.0
22 04:35 SW 3 10.00 Partly Cloudy SCT020 81.7 74.5 79% 88 29.93 0.0
Date Time (cdt) Wind (mph) Vis. (mi.) Weather Sky Cond. Air Dwpt Max. Min. Relative Humidity Wind Chill (°F) Heat Index (°F) altimeter (in) sea level (mb) 1 hr 3 hr 6 hr
6 hour
Temperature (ºF) Pressure Precipitation (in)